• In Hungary
  • List of Countries
  • For 7 days
  • Water Temperature
  • Satellite Maps
  • Weather Map
  • News
  • Weather Widgets
  • user-avatar
    Login

    Hourly Weather Jarocin

    Today, 21 September, Friday

    Time Temperature Precipitation Wind Pressure Humidity
    00:00 +20°C° 0 mm 3 mps 753 mmHg 64%
    01:00 +20°C° 0 mm 3 mps 752 mmHg 65%
    02:00 +19°C° 0 mm 3 mps 752 mmHg 66%
    03:00 +19°C° 0 mm 3 mps 752 mmHg 66%
    04:00 +19°C° 0 mm 3 mps 752 mmHg 67%
    05:00 +19°C° 0 mm 3 mps 752 mmHg 65%
    06:00 +19°C° 0 mm 3 mps 752 mmHg 63%
    07:00 +20°C° 0 mm 3 mps 752 mmHg 61%
    08:00 +21°C° 0 mm 3 mps 751 mmHg 56%
    09:00 +23°C° 0 mm 4 mps 751 mmHg 51%
    10:00 +26°C° 0 mm 5 mps 751 mmHg 46%
    11:00 +27°C° 0 mm 5 mps 750 mmHg 42%
    12:00 +28°C° 0 mm 6 mps 750 mmHg 38%
    13:00 +30°C° 0 mm 5 mps 749 mmHg 34%
    14:00 +29°C° 0 mm 5 mps 748 mmHg 36%
    15:00 +28°C° 0 mm 5 mps 748 mmHg 38%
    16:00 +28°C° 0 mm 5 mps 747 mmHg 40%
    17:00 +26°C° 0 mm 5 mps 747 mmHg 43%
    18:00 +25°C° 0 mm 5 mps 746 mmHg 46%
    19:00 +23°C° 0 mm 5 mps 746 mmHg 49%
    20:00 +23°C° 0 mm 6 mps 746 mmHg 51%
    21:00 +22°C° 0 mm 6 mps 745 mmHg 53%
    22:00 +22°C° 0 mm 7 mps 745 mmHg 55%
    23:00 +21°C° 0.5 mm 7 mps 746 mmHg 64%

    Tomorrow, 22 September, Saturday

    Time Temperature Precipitation Wind Pressure Humidity
    00:00 +20°C° 0.5 mm 7 mps 746 mmHg 73%
    01:00 +17°C° 0.5 mm 7 mps 747 mmHg 82%
    02:00 +16°C° 0.5 mm 7 mps 748 mmHg 80%
    03:00 +15°C° 0.5 mm 6 mps 749 mmHg 79%
    04:00 +14°C° 0.5 mm 5 mps 750 mmHg 77%
    05:00 +13°C° 0 mm 5 mps 750 mmHg 75%
    06:00 +13°C° 0 mm 5 mps 751 mmHg 73%
    07:00 +13°C° 0 mm 5 mps 752 mmHg 71%
    08:00 +14°C° 0 mm 6 mps 752 mmHg 65%
    09:00 +15°C° 0 mm 7 mps 752 mmHg 59%
    10:00 +16°C° 0 mm 7 mps 752 mmHg 53%
    11:00 +16°C° 0.1 mm 7 mps 752 mmHg 51%
    12:00 +16°C° 0.1 mm 7 mps 752 mmHg 50%
    13:00 +16°C° 0.1 mm 7 mps 752 mmHg 49%
    14:00 +16°C° 0 mm 7 mps 752 mmHg 49%
    15:00 +16°C° 0 mm 7 mps 752 mmHg 49%
    16:00 +16°C° 0 mm 6 mps 752 mmHg 49%
    17:00 +15°C° 0 mm 5 mps 752 mmHg 54%
    18:00 +13°C° 0 mm 4 mps 752 mmHg 58%
    19:00 +12°C° 0 mm 3 mps 752 mmHg 63%
    20:00 +12°C° 0 mm 3 mps 752 mmHg 64%
    21:00 +12°C° 0 mm 4 mps 752 mmHg 65%
    22:00 +11°C° 0 mm 4 mps 752 mmHg 66%
    23:00 +11°C° 0 mm 4 mps 752 mmHg 66%

    Day after tomorrow, 23 September, Sunday

    Time Temperature Precipitation Wind Pressure Humidity
    00:00 +11°C° 0 mm 4 mps 752 mmHg 66%
    01:00 +11°C° 0 mm 4 mps 752 mmHg 67%
    02:00 +10°C° 0 mm 4 mps 752 mmHg 69%
    03:00 +10°C° 0 mm 4 mps 752 mmHg 71%
    04:00 +10°C° 0 mm 4 mps 751 mmHg 72%
    05:00 +10°C° 0 mm 4 mps 751 mmHg 72%
    06:00 +10°C° 0 mm 5 mps 751 mmHg 71%
    07:00 +10°C° 0 mm 5 mps 752 mmHg 71%
    08:00 +12°C° 0 mm 5 mps 752 mmHg 68%
    09:00 +13°C° 0 mm 5 mps 752 mmHg 64%
    10:00 +14°C° 0 mm 6 mps 752 mmHg 61%
    11:00 +15°C° 0 mm 6 mps 751 mmHg 58%
    12:00 +15°C° 0 mm 6 mps 751 mmHg 54%
    13:00 +16°C° 0 mm 5 mps 751 mmHg 51%
    14:00 +16°C° 0 mm 5 mps 751 mmHg 51%
    15:00 +16°C° 0 mm 5 mps 750 mmHg 51%
    16:00 +15°C° 0 mm 4 mps 750 mmHg 51%
    17:00 +14°C° 0 mm 3 mps 749 mmHg 57%
    18:00 +13°C° 0 mm 3 mps 749 mmHg 63%
    19:00 +13°C° 0 mm 2 mps 748 mmHg 68%
    20:00 +13°C° 1.1 mm 2 mps 747 mmHg 75%
    21:00 +12°C° 1.1 mm 2 mps 746 mmHg 82%
    22:00 +12°C° 1.1 mm 2 mps 745 mmHg 89%
    23:00 +11°C° 3.2 mm 3 mps 743 mmHg 90%

    24 September, Monday

    Time Temperature Precipitation Wind Pressure Humidity
    00:00 +9°C° 3.2 mm 5 mps 742 mmHg 91%
    01:00 +9°C° 3.2 mm 6 mps 740 mmHg 92%
    02:00 +9°C° 2.6 mm 7 mps 740 mmHg 91%
    03:00 +9°C° 2.6 mm 8 mps 739 mmHg 90%
    04:00 +7°C° 2.6 mm 9 mps 739 mmHg 89%
    05:00 +7°C° 2.3 mm 9 mps 740 mmHg 88%
    06:00 +7°C° 2.3 mm 9 mps 742 mmHg 88%
    07:00 +7°C° 2.3 mm 8 mps 743 mmHg 87%
    08:00 +8°C° 0.2 mm 9 mps 744 mmHg 80%
    09:00 +10°C° 0.2 mm 9 mps 746 mmHg 73%
    10:00 +11°C° 0.2 mm 10 mps 747 mmHg 66%
    11:00 +12°C° 0.2 mm 10 mps 747 mmHg 61%
    12:00 +12°C° 0.2 mm 10 mps 748 mmHg 56%
    13:00 +12°C° 0.2 mm 10 mps 749 mmHg 52%
    14:00 +12°C° 0.2 mm 10 mps 749 mmHg 55%
    15:00 +11°C° 0.2 mm 9 mps 750 mmHg 59%
    16:00 +10°C° 0.2 mm 9 mps 750 mmHg 62%
    17:00 +9°C° 0.1 mm 8 mps 751 mmHg 65%
    18:00 +9°C° 0.1 mm 7 mps 752 mmHg 67%
    19:00 +8°C° 0.1 mm 6 mps 753 mmHg 69%
    20:00 +7°C° 0 mm 6 mps 754 mmHg 70%
    21:00 +7°C° 0 mm 5 mps 755 mmHg 70%
    22:00 +6°C° 0 mm 5 mps 756 mmHg 71%
    23:00 +6°C° 0 mm 5 mps 756 mmHg 71%

    25 September, Tuesday

    Time Temperature Precipitation Wind Pressure Humidity
    00:00 +6°C° 0 mm 5 mps 757 mmHg 72%
    01:00 +5°C° 0 mm 6 mps 757 mmHg 72%
    02:00 +6°C° 0 mm 5 mps 758 mmHg 72%
    03:00 +6°C° 0 mm 5 mps 758 mmHg 72%
    04:00 +5°C° 0 mm 5 mps 758 mmHg 72%
    05:00 +6°C° 0 mm 5 mps 759 mmHg 69%
    06:00 +5°C° 0 mm 6 mps 759 mmHg 67%
    07:00 +5°C° 0 mm 6 mps 760 mmHg 64%
    08:00 +8°C° 0 mm 6 mps 760 mmHg 57%
    09:00 +9°C° 0 mm 7 mps 760 mmHg 50%
    10:00 +11°C° 0 mm 7 mps 761 mmHg 43%
    11:00 +11°C° 0 mm 7 mps 760 mmHg 42%
    12:00 +12°C° 0 mm 7 mps 760 mmHg 41%
    13:00 +12°C° 0 mm 7 mps 760 mmHg 40%
    14:00 +12°C° 0 mm 7 mps 759 mmHg 43%
    15:00 +11°C° 0 mm 7 mps 759 mmHg 47%
    16:00 +11°C° 0 mm 7 mps 758 mmHg 51%
    17:00 +10°C° 0.3 mm 8 mps 757 mmHg 56%
    18:00 +8°C° 0.3 mm 9 mps 757 mmHg 61%
    19:00 +8°C° 0.3 mm 9 mps 756 mmHg 66%
    20:00 +7°C° 1.2 mm 9 mps 756 mmHg 71%
    21:00 +7°C° 1.2 mm 8 mps 755 mmHg 76%
    22:00 +7°C° 1.2 mm 8 mps 755 mmHg 81%
    23:00 +8°C° 0.1 mm 7 mps 755 mmHg 80%

    26 September, Wednesday

    Time Temperature Precipitation Wind Pressure Humidity
    00:00 +6°C° 0.1 mm 7 mps 755 mmHg 79%
    01:00 +7°C° 0.1 mm 6 mps 755 mmHg 77%
    02:00 +5°C° 0 mm 6 mps 756 mmHg 78%
    03:00 +5°C° 0 mm 6 mps 756 mmHg 78%
    04:00 +5°C° 0 mm 6 mps 756 mmHg 78%
    05:00 +5°C° 0 mm 6 mps 757 mmHg 77%
    06:00 +6°C° 0 mm 7 mps 757 mmHg 75%
    07:00 +6°C° 0 mm 7 mps 758 mmHg 73%
    08:00 +9°C° 0 mm 7 mps 758 mmHg 68%
    09:00 +10°C° 0 mm 7 mps 759 mmHg 63%
    10:00 +12°C° 0 mm 7 mps 760 mmHg 58%
    11:00 +14°C° 0 mm 7 mps 760 mmHg 55%
    12:00 +14°C° 0 mm 6 mps 760 mmHg 53%
    13:00 +15°C° 0 mm 6 mps 761 mmHg 51%
    14:00 +15°C° 0 mm 5 mps 761 mmHg 52%
    15:00 +15°C° 0 mm 4 mps 761 mmHg 53%
    16:00 +16°C° 0 mm 3 mps 761 mmHg 54%
    17:00 +13°C° 0 mm 3 mps 761 mmHg 58%
    18:00 +12°C° 0 mm 3 mps 761 mmHg 62%
    19:00 +11°C° 0 mm 3 mps 761 mmHg 66%
    20:00 +11°C° 0 mm 3 mps 761 mmHg 67%
    21:00 +11°C° 0 mm 3 mps 761 mmHg 69%
    22:00 +11°C° 0 mm 4 mps 761 mmHg 71%
    23:00 +11°C° 0 mm 4 mps 761 mmHg 72%
    Show more